Other Public Products
Issued by NWS Grand Forks, ND

Home | Current Version | Previous Version | Text Only | Print | Product List | Glossary Off
Versions: 1 2 3 4 5 6 7 8 9 10 11 12 13 14 15 16 17 18 19 20 21 22 23 24 25 26 27 28 29 30 31 32 33 34 35 36 37 38 39 40 41 42 43 44 45 46 47 48 49 50

000
FPUS83 KFGF 231510
OPUFGF
PRAIRIE TO PINES WEATHER ROUNDUP
NATIONAL WEATHER SERVICE EASTERN NORTH DAKOTA/GRAND FORKS ND
1000 AM CDT WED AUG 23 2017

 **SATELLITE DATA USED TO AUGMENT SKY COVER AT AUTOMATED STATIONS**
 *****  WEATHER ACROSS EASTERN NORTH DAKOTA  *****

CITY           SKY/WX    TMP DP  RH WIND       PRES   REMARKS
GRAND FORKS    FAIR      64  53  67 SE5       30.10S
GRAND FORKS AF FAIR      63  52  66 SE5       30.10F
GRAND CITY NWS NOT AVBL
BUXTON         NOT AVBL
DEVILS LAKE    PTSUNNY   65  50  58 S7        30.08S
FARGO          FAIR      66  52  60 CALM      30.10F
WAHPETON ARPT  FAIR      64  50  59 CALM      30.12S
$$

 *****  WEATHER ACROSS CENTRAL AND WESTERN NORTH DAKOTA  *****

CITY           SKY/WX    TMP DP  RH WIND       PRES   REMARKS
JAMESTOWN      FAIR      63  53  70 SE6       30.07F
BISMARCK       FAIR      64  52  64 CALM      30.06F
MINOT          FAIR      70  46  42 S8        30.01F
MINOT AFB      FAIR      72  45  36 SW10      29.99F
GARRISON         N/A     66  50  56 S6        30.04F
WILLISTON      FAIR      67  45  45 SW8       30.02F
DICKINSON      FAIR      70  48  45 S15       30.05F
HETTINGER      FAIR      67  49  52 SE9       30.08S
$$

 *****  OTHER OBSERVATIONS NORTHEAST NORTH DAKOTA  *****

CITY           SKY/WX    TMP DP  RH WIND       PRES   REMARKS
WALHALLA       FAIR      61  61 100 SE8       30.09F
LANGDON        FAIR      63  55  77 SE10      30.09S
CAVALIER       FAIR      59  52  77 SE6       30.10S
GRAFTON        FAIR      63  54  72 SE6       30.11F
CANDO          FAIR      66  54  63 SE7       30.08F
FORT TOTTEN      N/A     67  49  51 S5        29.95S
ROLLA          PTSUNNY   61  54  77 SE5       30.06F
RUGBY          FAIR      64  48  55 SW8       30.04S
 ***** THE ABOVE OBSERVATIONS ARE NON NWS ARE NOT QUALITY
        CONTROLLED AND MAY MIS-REPORT RAIN FOR SNOW...
$$

 *****  OTHER OBSERVATIONS SOUTHEAST NORTH DAKOTA *****

CITY           SKY/WX    TMP DP  RH WIND       PRES   REMARKS
COOPERSTOWN    FAIR      66  52  59 SE9       30.09F
VALLEY CITY      N/A     64  50  59 MISG      30.11S
OAKES          NOT AVBL
GWINNER        SUNNY     64  54  68 CALM      30.11S
SHEYENNE NWR     N/A     66  53  63 CALM      29.95S
BUFFALO        NOT AVBL
WYNDMERE       NOT AVBL
 ***** THE ABOVE OBSERVATIONS ARE NON NWS ARE NOT QUALITY
       CONTROLLED AND MAY MIS-REPORT RAIN FOR SNOW...
$$

  *****  WEATHER ACROSS NORTHERN MINNESOTA  *****

CITY           SKY/WX    TMP DP  RH WIND       PRES   REMARKS
FLAG ISLAND    FAIR      59  50  72 CALM      30.11R
WARROAD        FAIR      54  50  87 CALM      30.13R
ROSEAU           N/A     54  48  82 CALM      30.13S
HALLOCK        PTSUNNY   57  54  88 E5        30.11S
THF RVR FALLS  FAIR      60  54  80 E5        30.13S
HALSTAD        NOT AVBL
FOSSTON          N/A     55  55 100 CALM      30.13F FOG
BAUDETTE       PTSUNNY   59  53  80 CALM      30.12S
WASKISH        PTSUNNY   59  52  77 W3        30.12S
CROOKSTON      FAIR      61  55  82 SE5       30.11F
$$
  *****  WEATHER ACROSS CENTRAL AND WEST MINNESOTA  *****

CITY           SKY/WX    TMP DP  RH WIND       PRES   REMARKS
BEMIDJI        PTSUNNY   59  52  77 N3        30.13R
PARK RAPIDS    CLOUDY    63  53  70 N7        30.12F
WADENA         FAIR      63  52  67 N3        30.12S
DETROIT LAKES  FAIR      63  52  67 CALM      30.13S
MOORHEAD       FAIR      63  54  72 CALM      30.12S
FERGUS FALLS   FAIR      64  54  68 CALM      30.11F
ELBOW LAKE     FAIR      63  56  78 CALM      30.13S
MORRIS MN      FAIR      64  54  68 CALM      30.12S
STAPLES        FAIR      61  52  72 CALM      30.13S
WHEATON        FAIR      64  50  59 CALM      30.13S
$$
  *****  WEATHER ELSEWHERE ACROSS MINNESOTA  *****

CITY           SKY/WX    TMP DP  RH WIND       PRES   REMARKS
DULUTH         FAIR      59  51  75 N8        30.09R
INTRNTL FALLS  PTSUNNY   59  48  67 NW6       30.12R
ELY            PTSUNNY   55  45  67 N3        30.10R
CLOQUET        FAIR      59  52  77 NW9       30.10S
BRAINERD       FAIR      63  53  70 N7        30.12S
HIBBING        PTSUNNY   58  51  78 NW9       30.11R
ALEXANDRIA     FAIR      67  52  58 N7        30.14S
SAINT CLOUD    FAIR      64  55  72 N6        30.12S
MINNEAPOLIS    FAIR      67  53  61 N5        30.11S
$$

  *****  WEATHER ACROSS SOUTH DAKOTA  *****

CITY           SKY/WX    TMP DP  RH WIND       PRES   REMARKS
SIOUX FALLS    FAIR      68  56  65 S3        30.14F
BROOKINGS      FAIR      66  54  65 S6        30.15S
WATERTOWN      FAIR      65  54  67 S6        30.13S
HURON          FAIR      67  57  70 SE8       30.09F
SISSETON         N/A     64  54  69 E5        30.10F
ABERDEEN       FAIR      64  53  67 SE6       30.10S
MITCHELL       FAIR      69  56  62 S10       30.11F
PIERRE         FAIR      69  56  62 SE13      30.02F
MOBRIDGE       FAIR      72  53  51 SE9       30.03F
RAPID CITY     FAIR      70  51  51 N7        30.06S
$$

  *****  SOME WEATHER IN NEARBY STATES *****

CITY           SKY/WX    TMP DP  RH WIND       PRES   REMARKS
GLASGOW MT     FAIR      68  42  38 SE10      29.99F
GREAT FALLS MT FAIR      71  34  25 SW9       30.04S
CHEYENNE WY    FAIR      76  44  32 NW3       30.24R
SCOTTSBLUFF NE FAIR      65  55  70 SE5       30.13S
OMAHA NE       FAIR      69  57  65 CALM      30.17S
DES MOINES IA  FAIR      71  55  56 NW3       30.15S
DAVENPORT IA   FAIR      68  54  60 NW7       30.13R
CHICAGO IL     FAIR      71  50  47 NW9       30.04S
EAU CLAIRE WI  FAIR      64  52  64 N7        30.08S
LA CROSSE WI   FAIR      68  53  58 NW7       30.08F
$$

  *****  SOME NATIONAL WEATHER *****

CITY           SKY/WX    TMP DP  RH WIND       PRES   REMARKS
LA GUARDIA NY  PTSUNNY   78  58  49 NW13      29.84R
RALEIGH NC     FAIR      86  74  67 W7        29.90S HX  94
ATLANTA GA     FAIR      83  72  69 NW10      30.00R
NEW ORLEANS LA PTSUNNY   84  77  79 N6        29.98S HX  94
OKLAHOMA CITY  PTSUNNY   73  66  78 NE9       30.11S
ALBUQUERQUE NM FAIR      70  59  68 VRB3      30.31R
SALT LAKE CITY PTSUNNY   74  56  53 SE9       30.17S
LOS ANGELES CA CLOUDY    68  63  84 W7        29.98R
BOISE ID       FAIR      71  41  33 SE10      30.02R
SEATTLE WA     CLOUDY    62  56  80 SE5       30.06S
$$

*** WEATHER ACROSS MANITOBA...SASKATCHEWAN AND ONTARIO ***
                ***ONTARIO***

CITY           SKY/WX    TMP DP  RH WIND       PRES   REMARKS
GERALDTON      CLOUDY    50  43  76 N10G18    29.95R
THUNDER BAY    MOSUNNY   57  39  51 NW9G17    30.03R
SIOUX LOOKOUT  PTSUNNY   54  39  58 N6        30.11S
TORONTO        PTSUNNY   70  55  60 W22       29.84S
BIG TROUT LK   SUNNY     48  37  66 NW10      30.09S
PICKLE LAKE    MOSUNNY   50  36  57 NW5       30.09R
DRYDEN         SUNNY     54  45  71 VRB6      30.11S
KENORA         CLOUDY    54  46  76 N3        30.13R
$$
                *** MANITOBA***

CITY           SKY/WX    TMP DP  RH WIND       PRES   REMARKS
BRANDON        CLOUDY    57  50  77 SE8       30.02F
DAUPHIN        PTSUNNY   59  55  88 SE13G23   30.05S
ISLAND LAKE    MOSUNNY   55  43  62 NW2       30.16R
PILOT MOUND    NOT AVBL
THE PAS        MOSUNNY   63  52  67 SE7       30.10R
THOMPSON       PTSUNNY   54  41  62 NE2       30.17S
WINNIPEG       LGT RAIN  55  54  94 E6        30.11S
LYNN LAKE      SUNNY     54  50  87 SE5       30.14S
CHURCHILL      SUNNY     54  45  71 NW9       30.13S
GILLAM         SUNNY     54  39  58 N7        30.16S
$$
                ***SASKATCHEWAN***

CITY           SKY/WX    TMP DP  RH WIND       PRES   REMARKS
ESTEVAN        MOSUNNY   66  46  48 W5        30.00F
KINDERSLEY     MOSUNNY   66  52  59 E20G26    29.98F
LLOYDMINSTER   PTSUNNY   59  57  94 E8        30.01S
PRINCE ALBERT  MOSUNNY   59  50  72 E8        30.07S
REGINA         SUNNY     66  45  45 VRB2      30.00R
YORKTON        CLOUDY    57  52  82 N8        30.01R



USA.gov is the U.S. government's official web portal to all federal, state and local government web resources and services.